Peru, IL

12:01 AM CDT on April 28, 2017 (GMT -0500)
Illinois Valley Regional-Duncan

Weather History for KVYS - March, 2013

Change the Weather History Date:

Tuesday, March 5, 2013

  Actual Average Record
Temperature  
Mean Temperature 30 °F -  
Max Temperature 33 °F 42 °F 69 °F (1983)
Min Temperature 27 °F 25 °F -3 °F (1978)
Degree Days  
Heating Degree Days 35    
Moisture  
Dew Point 30 °F    
Average Humidity 94    
Maximum Humidity 100    
Minimum Humidity 85    
Precipitation  
Precipitation 0.28 in - - ()
Sea Level Pressure  
Sea Level Pressure 29.88 in    
Wind  
Wind Speed 11 mph (NNE)    
Max Wind Speed 24 mph    
Max Gust Speed 29 mph    
Visibility 3 miles    
Events Rain , Snow    
Averages and records for this station are not official NWS values.
T = Trace of Precipitation, MM = Missing Value Source: NWS Daily Summary

Daily Weather History Graph

Daily Weather History Graph

Search for Another Location

Airport or City:

Trip Planner

Search our weather history database for the weather conditions in past years. The results will help you decide how hot, cold, wet, or windy it might be!

Date:

Astronomy

Mar. 05, 2013 Rise Set
Actual Time 6:24 AM CST 5:52 PM CST
Civil Twilight 5:56 AM CST 6:19 PM CST
Nautical Twilight 5:24 AM CST 6:51 PM CST
Astronomical Twilight 4:52 AM CST 7:24 PM CST
Moon 1:39 AM CST (3/5) 11:28 AM CST (3/5)
Length of Visible Light 12h 23m
Length of Day
11h 27m
Last Quarter, 40% of the Moon is Illuminated
Mar 5
Last Quarter
Mar 11
New
Mar 19
First Quarter
Mar 27
Full
Apr 2
Last Quarter

Hourly Weather History & Observations

Time (CST) Temp. Windchill Dew Point Humidity Pressure Visibility Wind Dir Wind Speed Gust Speed Precip Events Conditions
12:35 AM 32.5 °F 23.7 °F 28.4 °F 85% 29.93 in 10.0 mi ENE 11.5 mph - N/A   Overcast
12:55 AM 32.5 °F 24.2 °F 28.4 °F 85% 29.93 in 10.0 mi East 10.4 mph - N/A   Overcast
1:15 AM 32.5 °F 23.2 °F 28.4 °F 85% 29.92 in 10.0 mi East 12.7 mph - N/A   Overcast
1:35 AM 32.5 °F 24.8 °F 28.8 °F 86% 29.91 in 10.0 mi East 9.2 mph - N/A   Overcast
1:55 AM 32.0 °F 23.0 °F 28.4 °F 87% 29.91 in 10.0 mi East 11.5 mph - N/A   Overcast
2:15 AM 32.5 °F 24.2 °F 29.1 °F 87% 29.90 in 10.0 mi East 10.4 mph - N/A   Overcast
2:35 AM 32.5 °F 23.7 °F 28.9 °F 87% 29.89 in 10.0 mi East 11.5 mph - N/A   Overcast
2:55 AM 32.5 °F 24.2 °F 28.9 °F 87% 29.88 in 10.0 mi East 10.4 mph - N/A   Overcast
3:15 AM 32.5 °F 24.8 °F 29.5 °F 88% 29.88 in 2.5 mi ENE 9.2 mph - N/A Snow Light Snow
3:35 AM 32.0 °F 23.0 °F 30.0 °F 92% 29.88 in 2.0 mi ENE 11.5 mph - N/A Snow Light Snow
3:55 AM 32.0 °F 23.0 °F 30.2 °F 93% 29.88 in 2.5 mi ENE 11.5 mph - N/A Snow Light Snow
4:15 AM 32.0 °F 23.6 °F 30.4 °F 94% 29.88 in 3.0 mi ENE 10.4 mph - N/A   Overcast
4:35 AM 32.0 °F 24.2 °F 30.4 °F 94% 29.88 in 1.8 mi ENE 9.2 mph - N/A Snow Light Snow
4:55 AM 32.0 °F 24.8 °F 30.6 °F 94% 29.87 in 1.5 mi ENE 8.1 mph - N/A Snow Light Snow
5:15 AM 32.0 °F 23.0 °F 30.7 °F 95% 29.86 in 2.0 mi East 11.5 mph - N/A Snow Light Snow
5:35 AM 32.0 °F 23.6 °F 30.7 °F 95% 29.85 in 1.8 mi East 10.4 mph - 0.01 in Snow Light Snow
5:55 AM 32.0 °F 24.2 °F 30.7 °F 95% 29.86 in 1.5 mi East 9.2 mph - 0.01 in Snow Light Snow
6:15 AM 32.0 °F 25.6 °F 30.2 °F 93% 29.87 in 0.8 mi East 6.9 mph - N/A Snow Snow
6:35 AM 32.0 °F 25.6 °F 32.0 °F 100% 29.86 in 0.8 mi ENE 6.9 mph - N/A Snow Light Snow
6:55 AM 32.0 °F 26.4 °F 31.1 °F 96% 29.86 in 0.5 mi ENE 5.8 mph - 0.01 in Snow Light Snow
7:15 AM 32.0 °F 27.5 °F 31.1 °F 96% 29.86 in 0.5 mi ENE 4.6 mph - 0.01 in Snow Light Snow
7:35 AM 32.0 °F 26.4 °F 31.1 °F 96% 29.87 in 0.5 mi ENE 5.8 mph - 0.03 in Snow Snow
7:55 AM 32.0 °F 25.6 °F 31.3 °F 97% 29.86 in 0.5 mi ENE 6.9 mph - 0.03 in Snow Light Snow
8:15 AM 32.0 °F 25.6 °F 31.5 °F 98% 29.85 in 0.8 mi NE 6.9 mph - 0.05 in Snow Light Snow
8:35 AM 32.0 °F 26.4 °F 31.5 °F 98% 29.85 in 0.8 mi NE 5.8 mph - 0.05 in Snow Light Snow
8:55 AM 32.2 °F 27.7 °F 31.6 °F 98% 29.85 in 0.5 mi NE 4.6 mph - 0.06 in Snow Light Snow
9:15 AM 32.4 °F 27.9 °F 31.8 °F 98% 29.85 in 0.5 mi NE 4.6 mph - 0.01 in Snow Light Snow
9:35 AM 32.5 °F 28.1 °F 31.8 °F 97% 29.84 in 0.8 mi NE 4.6 mph - 0.02 in Snow Light Snow
9:55 AM 32.5 °F 28.1 °F 31.8 °F 97% 29.83 in 0.5 mi NE 4.6 mph - 0.04 in Snow Light Snow
10:15 AM 32.5 °F 28.1 °F 32.0 °F 98% 29.83 in 1.0 mi NE 4.6 mph - 0.01 in Snow Light Snow
10:35 AM 32.7 °F 28.3 °F 32.0 °F 97% 29.82 in 0.8 mi NE 4.6 mph - 0.02 in   Overcast
10:55 AM 33.1 °F 30.0 °F 32.0 °F 96% 29.82 in 0.5 mi ENE 3.5 mph - 0.04 in Snow Light Snow
11:15 AM 33.1 °F 30.0 °F 32.0 °F 96% 29.82 in 0.8 mi ENE 3.5 mph - 0.01 in Rain Rain
11:35 AM 33.1 °F 30.0 °F 32.0 °F 96% 29.82 in 0.5 mi ENE 3.5 mph - 0.03 in   Overcast
11:55 AM 33.3 °F 28.9 °F 32.0 °F 95% 29.82 in 0.5 mi WNW 4.6 mph - 0.04 in Snow Light Snow
12:15 PM 33.3 °F 27.9 °F 32.0 °F 95% 29.81 in 0.5 mi West 5.8 mph - N/A Snow Light Snow
12:35 PM 33.1 °F 26.9 °F 32.0 °F 96% 29.81 in 0.5 mi WNW 6.9 mph - 0.01 in Snow Light Snow
12:55 PM 33.1 °F 26.9 °F 32.0 °F 96% 29.80 in 1.0 mi WNW 6.9 mph - 0.02 in   Overcast
1:15 PM 33.1 °F 26.1 °F 32.0 °F 96% 29.80 in 0.5 mi NW 8.1 mph - 0.01 in Snow Light Snow
1:35 PM 33.1 °F 25.5 °F 32.0 °F 96% 29.80 in 0.5 mi NW 9.2 mph - 0.02 in Snow Light Snow
1:55 PM 32.5 °F 22.7 °F 31.8 °F 97% 29.80 in 0.8 mi WNW 13.8 mph - 0.02 in Snow Light Snow
2:15 PM 32.2 °F 21.8 °F 31.5 °F 97% 29.80 in 0.8 mi WNW 15.0 mph 19.6 mph N/A Snow Light Snow
2:35 PM 32.0 °F 21.6 °F 31.1 °F 96% 29.80 in 1.0 mi WNW 15.0 mph - N/A Snow Light Snow
2:55 PM 32.0 °F 21.2 °F 30.9 °F 96% 29.81 in 0.8 mi WNW 16.1 mph - 0.01 in Snow Light Snow
3:15 PM 32.0 °F 21.2 °F 30.9 °F 96% 29.81 in 0.8 mi WNW 16.1 mph - N/A Snow Light Snow
3:35 PM 32.0 °F 20.8 °F 30.9 °F 96% 29.82 in 0.8 mi WNW 17.3 mph - N/A Snow Light Snow
3:55 PM 32.0 °F 21.2 °F 30.9 °F 96% 29.82 in 0.8 mi WNW 16.1 mph - N/A Snow Light Snow
4:15 PM 32.0 °F 20.8 °F 30.9 °F 96% 29.82 in 0.8 mi WNW 17.3 mph 21.9 mph N/A Snow Light Snow
4:35 PM 32.0 °F 21.2 °F 31.1 °F 96% 29.83 in 0.5 mi NW 16.1 mph - N/A Snow Light Snow
4:55 PM 32.2 °F 22.7 °F 31.6 °F 98% 29.84 in 1.0 mi West 12.7 mph - N/A Snow Light Snow
5:15 PM 32.0 °F 20.8 °F 31.1 °F 96% 29.85 in 1.2 mi West 17.3 mph - N/A Snow Light Snow
5:35 PM 31.6 °F 22.1 °F 30.6 °F 96% 29.86 in 1.2 mi ENE 12.7 mph - N/A Snow Light Snow
5:55 PM 31.6 °F 20.4 °F 30.6 °F 96% 29.88 in 2.0 mi ENE 17.3 mph - N/A Snow Light Snow
6:15 PM 30.9 °F 21.2 °F 29.7 °F 95% 29.89 in 2.5 mi ENE 12.7 mph - N/A Rain Light Freezing Rain
6:35 PM 30.7 °F 19.6 °F 29.3 °F 94% 29.90 in 2.5 mi ENE 16.1 mph 21.9 mph N/A Rain Light Freezing Rain
6:55 PM 30.2 °F 18.1 °F 28.9 °F 95% 29.91 in 3.0 mi ENE 18.4 mph 21.9 mph N/A Rain Light Freezing Rain
7:15 PM 29.7 °F 17.4 °F 27.9 °F 93% 29.92 in 2.5 mi ENE 18.4 mph 25.3 mph N/A Snow Light Snow
7:35 PM 29.3 °F 17.0 °F 27.5 °F 93% 29.93 in 2.5 mi WNW 18.4 mph - N/A Snow Light Snow
7:55 PM 29.3 °F 15.9 °F 27.5 °F 93% 29.93 in 3.0 mi West 21.9 mph 26.5 mph N/A Snow Light Snow
8:15 PM 29.3 °F 16.6 °F 27.3 °F 92% 29.95 in 3.0 mi West 19.6 mph - N/A Snow Light Snow
8:35 PM 29.1 °F 16.0 °F 27.1 °F 92% 29.96 in 2.5 mi West 20.7 mph 26.5 mph N/A Snow Light Snow
8:55 PM 28.9 °F 16.1 °F 27.0 °F 92% 29.98 in 2.0 mi West 19.6 mph 26.5 mph N/A Snow Light Snow
9:15 PM 28.8 °F 14.6 °F 27.0 °F 93% 29.98 in 1.5 mi West 24.2 mph 28.8 mph N/A Snow Light Snow
9:35 PM 28.8 °F 14.9 °F 27.0 °F 93% 30.00 in 1.8 mi West 23.0 mph 26.5 mph N/A Snow Light Snow
9:55 PM 28.8 °F 15.2 °F 27.0 °F 93% 30.00 in 1.5 mi WNW 21.9 mph 27.6 mph N/A Snow Light Snow
10:15 PM 28.6 °F 14.6 °F 26.8 °F 93% 30.01 in 2.5 mi West 23.0 mph 26.5 mph N/A Snow Light Snow
10:35 PM 28.4 °F 14.7 °F 26.6 °F 93% 30.02 in 3.0 mi WNW 21.9 mph 26.5 mph N/A Snow Light Snow
10:55 PM 28.0 °F 14.3 °F 25.9 °F 92% 30.02 in 4.0 mi West 21.9 mph 28.8 mph N/A Rain Light Freezing Rain
11:15 PM 27.9 °F 15.1 °F 25.5 °F 91% 30.03 in 7.0 mi WNW 18.4 mph - N/A   Overcast
11:35 PM 27.5 °F 14.2 °F 25.2 °F 91% 30.03 in 7.0 mi WNW 19.6 mph - N/A   Overcast
11:55 PM 27.5 °F 13.5 °F 25.2 °F 91% 30.04 in 10.0 mi WNW 21.9 mph - N/A   Overcast